Regional Weather Roundup
Issued by NWS

Home | Current Version | Previous Version | Text Only | Print | Product List | Glossary On
Versions: 1 2 3 4 5 6 7 8 9 10 11 12 13 14 15 16 17 18 19 20 21 22 23 24 25 26 27 28 29 30 31 32 33 34 35 36 37 38 39 40 41 42 43 44 45 46 47 48 49 50
000
ASUS42 KFFC 230410
RWRGA
WEATHER ROUNDUP FOR GEORGIA
NATIONAL WEATHER SERVICE PEACHTREE CITY GA
1200 AM EDT WED AUG 23 2017

NOTE: "FAIR" INDICATES FEW OR NO CLOUDS BELOW 12,000 FEET WITH NO
SIGNIFICANT WEATHER AND/OR OBSTRUCTIONS TO VISIBILITY.

* = USE WITH CAUTION. THE STATIONS MARKED WITH AN ASTERISK MAY NOT
REPORT WEATHER SUCH AS PRECIPITATION, FOG, OR THUNDER AND ARE NOT
QUALITY CONTROLLED BY NWS.

THE REMARK "TC" DENOTES TEMPERATURE READING IN DEGREES CELSIUS.

GAZ001>058-230500-
NORTH GEORGIA

CITY           SKY/WX    TMP DP  RH WIND       PRES   REMARKS
ATLANTA        PTCLDY    80  72  76 W6        30.03R
ATHENS         CLEAR     76  74  93 W3        30.00S
CHAMBLEE       CLEAR     80  70  71 W7        30.02S
PEACHTREE CITY CLEAR     75  73  93 CALM      30.03R
ROME           CLEAR     78  73  84 SW5       30.00S
WEST ATLANTA   CLEAR     80  74  81 W3        30.02R
GAINESVILLE    CLEAR     77  73  87 SW5       30.04S
CARTERSVILLE   CLEAR     75  74  96 CALM      30.02S


CITY           SKY/WX    TMP DP  RH WIND       PRES   REMARKS
MARIETTA       CLEAR     79  72  78 W6        30.03S
KENNESAW*      CLEAR     80  71  74 W8        30.04R
CANTON*        CLEAR     81  72  74 SW5       30.04S
$$

GAZ059>098-102>109-230500-
CENTRAL GEORGIA

CITY           SKY/WX    TMP DP  RH WIND       PRES   REMARKS
AUGUSTA-BUSH   CLEAR     77  74  90 CALM      29.99R
AUGUSTA-DANIEL CLEAR     80  72  76 SE7       30.00S
COLUMBUS       CLEAR     81  75  82 E3        30.00R
MACON          CLEAR     76  74  93 CALM      30.00S
ROBINS AFB     CLEAR     79  73  83 CALM      30.00S


CITY           SKY/WX    TMP DP  RH WIND       PRES   REMARKS
LAGRANGE*      CLEAR     76  75  98 CALM      30.02S
SYLVANIA*        N/A     77  77  99 CALM      30.01S
MILLEDGEVILLE* CLEAR     75  73  94 CALM      29.99S
$$

GAZ099>101-110>166-230500-
SOUTH GEORGIA

CITY           SKY/WX    TMP DP  RH WIND       PRES   REMARKS
SAVANNAH       PTCLDY    79  76  90 SW5       30.00S
VALDOSTA       CLEAR     75  74  96 CALM      30.01S
ALMA           CLEAR     76  73  91 CALM      30.00S
ST SIMONS      CLEAR     84  75  74 S8        29.99F HX  92
FT STEWART     PTCLDY    77  74  89 CALM      29.98S
ALBANY         CLEAR     80  75  84 W5        30.03R
HUNTER AFB     PTCLDY    79  75  89 SW2       29.97S
MOODY AFB      CLEAR     77  74  90 NE3       30.00S
BRUNSWICK      CLEAR     79  73  83 CALM      30.00F


CITY           SKY/WX    TMP DP  RH WIND       PRES   REMARKS
BAINBRIDGE*    CLEAR     79  79 100 CALM      30.01S
MOULTRIE*      CLEAR     79  75  89 CALM      30.02F
VIDALIA*       CLEAR     79  77  94 CALM      30.01S
WAYCROSS*      CLEAR     78  74  90 CALM      30.00S
DOUGLAS*         N/A     77  72  83 CALM      30.02S
$$




USA.gov is the U.S. government's official web portal to all federal, state and local government web resources and services.